Vertical_Velocity
-0 -8 -2 -0 -3 2 6 -4 -3 -9 2 1 14 -18 9 3 6 -0 2 -1 -1 -0 -3 0 -3 5 5 -0 10 -1 -2 18 -1 -1 0 -4 -1 -2 -2 -1 -1 1 -0 -1 -2 -0 -2
-2 -3 -4 -3 5 2 2 -0 3 -5 -2 3 4 16 -35 1 9 2 -2 -3 -0 0 -3 -2 -6 5 -5 -6 11 10 -1 2 4 1 -1 1 -2 -3 -4 -1 1 -1 -0 -2 -2 -1 -1
-2 3 -8 3 -1 1 2 -1 -4 -1 2 -0 4 4 10 0 -8 0 2 -6 4 2 -1 -2 -3 2 12 3 4 -3 9 0 -7 1 -5 0 -1 2 -0 2 -1 -1 2 0 -0 -1 -0
1 -1 -1 2 2 -0 -3 -3 7 -2 -2 5 -2 8 1 -4 -3 -1 -4 1 7 4 1 -3 18 8 -0 7 -2 1 12 -11 8 4 -4 -1 1 -6 -0 -1 1 2 3 2 3 1 -0
2 -0 -2 3 -0 3 -1 -3 -2 2 -3 -1 3 1 3 -4 -2 0 -4 1 3 12 27 5 -5 -15 8 -17 3 -12 -5 -6 2 -1 -3 -1 -1 -2 0 1 2 0 0 0 -1 -0 1
0 -3 0 3 -0 -1 0 0 -3 1 -2 0 -3 -0 4 -3 2 -1 -4 14 5 -7 -16 -11 -12 -27 -5 11 2 1 3 3 -2 -0 -3 -3 -3 -0 -0 0 1 1 -0 -1 -0 2 -0
0 -2 2 1 0 1 1 -4 -1 -3 -2 -1 -1 3 2 -0 2 1 -6 7 -0 -22 -8 15 20 -2 -4 5 0 0 -0 -1 -4 -1 -1 -1 1 0 1 0 0 -1 1 1 -5 -3 7
-1 -0 1 -2 -3 0 -1 -1 2 1 -6 -2 2 -3 -0 -3 7 6 0 -10 -1 -10 -6 6 5 -9 2 -8 -5 1 2 1 -1 -0 0 4 1 2 -1 -0 -0 0 1 -3 -4 -0 9
-2 -3 3 -3 -2 -2 -2 -0 1 3 -3 -3 1 0 3 -4 -5 11 -6 -2 3 -2 -9 -3 2 -2 0 7 1 3 1 -1 -1 -1 0 -0 5 -0 -1 1 1 -0 1 -1 2 -3 -1
0 -2 -1 -2 -2 -1 -2 -0 -1 1 1 -3 0 -2 -1 -8 -0 -5 3 3 -3 -1 -5 -0 -5 -2 0 -3 -2 -1 -1 1 0 0 -0 1 2 -0 1 0 2 1 -0 1 1 0 1
1 0 -2 -0 -1 -5 -0 -2 1 -3 4 0 3 1 -3 1 -3 -5 -6 -5 -1 -2 -6 -4 -1 -2 -2 -1 -2 -0 -1 -2 1 1 5 6 1 1 1 -3 0 -1 1 2 2 1 5
2 1 0 -2 2 -3 -4 1 -4 -3 2 2 -2 1 3 -5 -1 -2 0 1 2 3 2 -1 1 -1 -2 -3 0 -1 -1 -4 -2 1 0 -1 -0 2 -3 -1 -1 0 -0 -0 1 1 4
1 -1 1 2 1 1 -0 -3 -4 0 -3 -1 1 0 -4 3 -4 -4 -2 4 -1 -7 6 1 -0 0 0 1 1 -0 0 -1 2 0 -2 -3 -0 -0 2 2 1 3 2 0 5 5 2
-2 -0 3 1 0 0 -0 1 -2 -2 3 -5 -1 -4 -4 -4 -5 -3 -2 -5 -12 3 1 1 -0 -1 -1 1 2 0 -0 -1 1 1 0 -0 4 0 -1 1 1 -1 0 3 1 1 0
-3 -1 -0 2 1 1 -3 -3 3 -5 -1 -1 -1 -2 5 -1 -2 -0 -7 -7 2 -1 0 0 3 -0 1 -0 2 -1 0 0 -0 -1 1 0 -0 2 1 -0 2 5 3 1 2 0 4
0 -3 -1 -0 1 3 1 -6 3 1 -3 -1 -1 -1 -3 4 -1 -1 -11 -0 0 0 1 2 1 1 -0 0 2 0 1 1 -0 -1 0 1 0 0 2 2 1 -0 2 6 2 2 -0
-1 -1 -2 -0 -1 1 3 -3 -0 0 0 -3 -4 -2 -2 -2 9 -10 -2 2 -0 0 1 3 1 0 1 -0 0 -0 -0 1 0 2 0 1 3 0 3 0 -3 4 1 2 2 2 2
-3 1 -2 -2 -1 -0 2 -3 -2 -0 2 2 -1 -4 -4 -0 -2 -0 -1 -0 -0 0 -1 0 1 1 0 0 0 0 1 2 -0 -2 -0 -2 2 0 -2 -1 -2 -0 0 -0 4 3 -0
-2 -2 1 -3 -2 -4 -1 -0 -5 0 -1 2 -2 -2 -5 -2 -1 0 2 1 -2 -0 0 -0 0 1 0 1 3 1 -0 0 -0 0 -0 0 -0 -0 3 7 6 2 0 -0 1 1 -3
-1 -4 1 -1 -5 -2 -2 1 -2 -4 -2 0 -1 -1 1 -4 -1 -0 -0 1 2 1 0 -0 1 0 -0 -0 -0 -0 -1 -0 0 0 0 2 0 2 1 5 2 1 0 0 0 2 -1
4 -3 -3 -0 -0 -5 -3 1 1 -3 0 -3 -1 1 -1 -0 -1 -0 -0 0 0 1 -0 0 3 -1 -1 0 -0 0 -1 -2 1 -0 1 3 1 1 -3 -1 2 -0 0 -0 2 -5 4
-1 2 -1 -2 -2 -2 -4 -2 -2 -3 -2 -1 -1 -1 -0 -0 -1 -1 -0 -1 0 -1 1 -0 0 -0 -1 -1 -2 -1 0 1 1 -2 -0 -0 -1 0 -3 -1 1 1 -1 0 -0 -1 1
-1 1 -1 1 -1 -5 -2 -3 1 -4 -6 -2 0 -4 3 -0 0 1 1 -0 -1 1 -2 2 1 1 2 -3 -0 -1 -0 1 0 0 -0 1 1 -0 -3 0 0 4 -6 -2 -1 0 0
2 -1 1 0 1 1 -6 -0 -3 -2 -5 -5 -1 1 0 2 1 -2 -0 -1 -0 0 4 1 -1 3 6 2 0 -0 1 1 2 -2 0 0 1 0 -1 -1 1 5 0 -1 -1 -1 0
-2 1 -2 1 -0 3 1 -4 -3 -1 -4 -4 -4 -1 1 -0 0 2 2 -1 -0 -0 -1 -2 -1 -2 -1 -1 1 1 2 3 1 -1 1 1 1 1 2 0 -9 1 1 0 1 -3 -1
-0 -2 -1 -4 -2 0 4 -1 1 -7 1 -1 -3 -4 0 2 -3 -0 0 -0 -1 -0 2 -1 -1 -0 -1 0 1 1 0 2 -0 3 0 1 3 6 2 2 -1 -1 -0 -1 0 -0 0
1 0 -1 -1 -3 -6 1 3 1 0 -5 -3 1 0 -5 1 -1 -2 -1 -2 -1 -1 1 -1 0 2 -3 0 1 1 -0 1 2 0 0 1 2 -0 -1 -0 -8 -1 -0 0 6 5 -1
-0 1 1 0 -1 -2 -6 -0 3 4 -2 -7 -3 0 2 -3 -6 -0 1 -3 -3 -2 0 1 2 2 2 3 2 -1 1 0 2 -0 -0 -0 1 -1 1 3 -3 -1 2 6 8 0 0
2 -1 1 1 1 2 -1 -6 -0 4 5 -0 -4 -2 -3 2 -1 -0 -1 1 -1 -2 -2 -0 -1 -1 -1 2 2 1 1 2 -0 -1 2 1 -0 4 3 -1 2 -2 3 2 1 -0 -1
Height
1529 1524 1519 1514 1509 1503 1498 1492 1487 1482 1476 1469 1462 1460 1459 1458 1459 1459 1459 1459 1459 1460 1462 1464 1466 1471 1476 1481 1484 1487 1487 1490 1495 1498 1501 1503 1507 1508 1510 1515 1518 1517 1519 1521 1520 1520 1521
1529 1524 1520 1514 1509 1504 1498 1493 1488 1484 1479 1473 1468 1463 1465 1464 1461 1458 1458 1458 1459 1459 1461 1464 1467 1470 1475 1480 1484 1486 1488 1491 1495 1500 1502 1504 1506 1509 1513 1516 1517 1519 1519 1519 1518 1518 1519
1530 1525 1520 1514 1510 1504 1498 1493 1489 1485 1481 1476 1471 1467 1463 1464 1460 1459 1459 1458 1459 1460 1461 1464 1468 1473 1477 1484 1486 1489 1491 1492 1497 1501 1504 1505 1507 1510 1514 1517 1520 1521 1518 1515 1514 1516 1515
1531 1527 1520 1516 1511 1504 1498 1494 1490 1486 1482 1478 1474 1469 1466 1464 1464 1460 1460 1458 1459 1461 1464 1466 1470 1474 1482 1487 1489 1491 1493 1497 1503 1503 1505 1507 1510 1510 1513 1518 1519 1518 1518 1506 1512 1514 1515
1532 1527 1522 1518 1512 1505 1500 1495 1490 1488 1485 1480 1476 1471 1469 1466 1466 1465 1462 1462 1463 1466 1464 1469 1473 1476 1487 1491 1492 1495 1498 1501 1503 1505 1508 1509 1510 1513 1516 1514 1510 1513 1509 1511 1506 1511 1512
1533 1528 1523 1520 1514 1509 1502 1496 1492 1489 1487 1482 1478 1475 1472 1471 1470 1469 1467 1468 1469 1472 1475 1475 1481 1486 1489 1493 1495 1498 1502 1505 1505 1508 1510 1510 1511 1511 1513 1510 1498 1508 1516 1514 1508 1508 1509
1535 1529 1526 1522 1516 1511 1505 1499 1494 1491 1488 1484 1481 1478 1476 1474 1475 1473 1472 1472 1476 1480 1479 1483 1485 1489 1494 1498 1500 1504 1506 1509 1508 1510 1506 1511 1507 1510 1515 1515 1516 1517 1517 1513 1507 1508 1509
1536 1531 1527 1523 1518 1513 1508 1503 1497 1493 1489 1486 1484 1482 1480 1479 1479 1477 1474 1473 1478 1484 1488 1492 1495 1497 1501 1502 1506 1508 1508 1510 1508 1508 1511 1511 1506 1514 1517 1519 1519 1518 1515 1508 1506 1509 1508
1538 1532 1528 1524 1519 1515 1510 1505 1500 1496 1493 1488 1486 1485 1483 1483 1483 1481 1479 1477 1480 1483 1491 1500 1503 1504 1506 1509 1509 1510 1511 1511 1511 1510 1512 1506 1513 1515 1516 1518 1518 1514 1512 1510 1512 1506 1496
1540 1535 1529 1525 1520 1516 1512 1508 1503 1499 1495 1491 1488 1486 1485 1486 1488 1486 1485 1484 1485 1485 1492 1512 1510 1510 1511 1510 1512 1513 1513 1514 1513 1513 1513 1511 1515 1515 1516 1515 1516 1510 1509 1511 1510 1509 1502
1542 1536 1531 1526 1521 1516 1512 1509 1507 1501 1498 1495 1491 1488 1486 1488 1489 1490 1491 1489 1488 1487 1489 1518 1514 1514 1513 1513 1515 1514 1514 1513 1512 1513 1513 1511 1512 1513 1512 1511 1513 1507 1509 1508 1507 1510 1512
1543 1538 1533 1528 1523 1518 1513 1509 1507 1503 1499 1498 1495 1493 1491 1490 1490 1491 1490 1489 1488 1486 1510 1519 1518 1517 1516 1515 1515 1516 1516 1515 1515 1512 1511 1509 1512 1511 1509 1510 1511 1507 1506 1502 1501 1507 1503
1544 1540 1535 1530 1524 1519 1514 1510 1508 1505 1503 1500 1497 1493 1491 1492 1492 1491 1490 1489 1489 1499 1524 1521 1520 1517 1513 1514 1515 1515 1515 1512 1511 1511 1512 1509 1509 1509 1511 1507 1507 1510 1509 1496 1492 1494 1478
1546 1541 1537 1531 1526 1520 1515 1511 1509 1506 1504 1502 1500 1495 1492 1491 1492 1492 1490 1491 1498 1515 1515 1518 1518 1518 1514 1516 1515 1515 1513 1514 1516 1516 1511 1513 1504 1505 1505 1504 1501 1503 1508 1500 1489 1480 1475
1548 1543 1538 1533 1527 1521 1516 1512 1509 1506 1504 1502 1502 1497 1493 1493 1492 1493 1494 1502 1516 1517 1516 1515 1516 1511 1515 1516 1514 1514 1515 1515 1514 1516 1512 1509 1500 1503 1504 1503 1504 1502 1501 1501 1497 1492 1486
1547 1544 1538 1534 1528 1523 1517 1513 1510 1507 1504 1503 1503 1501 1499 1496 1495 1495 1499 1512 1518 1519 1518 1516 1510 1512 1509 1514 1513 1514 1510 1510 1512 1513 1514 1510 1505 1499 1500 1503 1503 1503 1503 1498 1498 1486 1477
1548 1543 1539 1534 1529 1523 1518 1513 1509 1506 1504 1503 1505 1505 1504 1501 1499 1501 1513 1517 1519 1519 1519 1517 1513 1511 1510 1512 1512 1510 1509 1509 1510 1511 1512 1511 1509 1498 1499 1496 1497 1498 1498 1500 1499 1494 1479
1548 1543 1539 1535 1529 1524 1519 1515 1511 1508 1504 1505 1503 1509 1508 1505 1505 1508 1513 1519 1520 1519 1520 1520 1518 1514 1511 1512 1510 1508 1507 1507 1508 1510 1510 1510 1508 1503 1490 1488 1489 1493 1497 1500 1490 1488 1484
1548 1544 1540 1535 1530 1525 1520 1516 1514 1509 1506 1505 1506 1508 1510 1508 1509 1511 1515 1515 1517 1517 1518 1517 1516 1517 1515 1512 1510 1509 1508 1509 1509 1509 1506 1507 1504 1498 1487 1487 1489 1489 1495 1500 1495 1492 1479
1547 1543 1539 1535 1531 1526 1522 1518 1514 1511 1508 1506 1507 1511 1511 1510 1513 1513 1513 1515 1514 1514 1515 1516 1516 1515 1513 1512 1513 1509 1507 1508 1508 1508 1507 1507 1501 1497 1488 1484 1488 1488 1485 1491 1489 1486 1469
1546 1543 1539 1535 1532 1527 1523 1519 1516 1513 1509 1508 1508 1515 1518 1517 1516 1518 1518 1517 1513 1512 1513 1512 1512 1514 1513 1509 1509 1509 1509 1506 1506 1507 1506 1505 1498 1498 1488 1484 1485 1484 1482 1482 1484 1477 1471
1544 1542 1539 1535 1532 1528 1524 1520 1518 1514 1512 1510 1511 1512 1516 1520 1520 1520 1520 1517 1515 1514 1512 1509 1507 1509 1509 1509 1510 1508 1510 1507 1505 1505 1505 1506 1499 1498 1489 1481 1481 1479 1473 1472 1473 1471 1467
1543 1540 1538 1535 1532 1528 1525 1521 1518 1517 1514 1513 1512 1513 1512 1518 1520 1521 1519 1518 1517 1519 1514 1513 1513 1510 1508 1507 1507 1506 1507 1506 1505 1504 1502 1503 1500 1496 1482 1483 1480 1469 1457 1462 1463 1463 1461
1541 1539 1537 1535 1532 1528 1525 1522 1519 1518 1518 1517 1516 1515 1515 1513 1514 1515 1519 1520 1520 1522 1521 1517 1515 1515 1513 1509 1504 1502 1502 1502 1503 1503 1503 1498 1499 1502 1490 1482 1472 1460 1463 1460 1460 1459 1458
1540 1537 1535 1534 1532 1528 1525 1522 1520 1519 1518 1518 1517 1517 1516 1513 1515 1513 1515 1517 1517 1517 1517 1517 1515 1513 1511 1508 1504 1495 1492 1494 1492 1495 1498 1499 1495 1489 1486 1480 1457 1458 1461 1462 1460 1452 1455
1537 1535 1532 1532 1530 1529 1526 1523 1520 1519 1519 1517 1517 1517 1516 1516 1511 1513 1514 1514 1512 1512 1511 1509 1510 1511 1511 1510 1506 1499 1487 1491 1487 1493 1500 1501 1498 1490 1490 1480 1459 1448 1456 1459 1461 1451 1453
1534 1532 1530 1529 1528 1527 1526 1523 1520 1518 1518 1519 1517 1516 1515 1515 1510 1510 1511 1511 1511 1512 1509 1508 1507 1507 1509 1508 1503 1499 1494 1502 1490 1488 1491 1492 1492 1487 1479 1473 1453 1451 1455 1458 1454 1448 1449
1530 1529 1527 1526 1525 1524 1523 1523 1521 1517 1515 1516 1518 1516 1516 1513 1509 1507 1507 1506 1508 1509 1509 1510 1510 1507 1507 1504 1503 1499 1500 1496 1497 1491 1485 1479 1477 1477 1480 1477 1465 1456 1459 1456 1450 1450 1450
1527 1525 1524 1523 1522 1521 1520 1520 1519 1517 1515 1513 1514 1514 1514 1513 1507 1504 1502 1501 1501 1503 1504 1504 1505 1504 1503 1503 1503 1502 1497 1499 1495 1482 1488 1483 1475 1473 1472 1456 1458 1457 1453 1453 1452 1452 1451